Location: Brad
(46.1333°N, 22.7833°E)
Time: 11:01:29
(UTC+00:00)

BlueWalker 3 - Pass Details

Date: 03 February 2023
Orbit: 497 x 514 km, 53.2° (Epoch: 01 April)

Event Time Altitude Azimuth Distance (km) Brightness Sun altitude
Rises 16:47:29 0° 284° (WNW) 2,601 6.9 -12.6°
Reaches altitude 10° 16:49:53 10° 296° (WNW) 1,721 5.5 -13.0°
Maximum altitude 16:53:18 28° 357° (N) 974 3.3 -13.6°
Enters shadow 16:55:20 18° 44° (NE) 1,296 3.6 -13.9°
